[[{"header":{"parameterUnit":"m.s-1","parameterCategory":1,"la1":30.2991,"la2":30.254,"lo1":-89.0895,"lo2":-89.0444,"dy":0.0017,"dx":0.0017,"nx":28,"ny":28,"refTime":"2025-01-01T09:00:00:Z","depth":0,"parameterNumber":2,"parameterNumberName":"U-component_of_WINDS"},"data":[0,0,0,0,0,0,0,0,0,0,0,0,0,0,0,0,0,0,0,0,0,0,0,0,0,0,0,0,0,0,0,0,0,0,0,0,0,0,0,0,0,0,0,0,0,0,0,0,0,0,0,0,0,0,0,0,0,0,-4.3239,-4.324,0,-4.3283,-4.3283,-4.3284,-4.3158,-4.3154,-4.315,-4.3146,-4.3196,-4.32,-4.3205,0,0,0,0,0,0,0,0,0,0,0,0,0,-4.3049,-4.3053,-4.3239,-4.324,-4.324,-4.3283,-4.3283,-4.3284,-4.3159,-4.3154,-4.3149,-4.3145,-4.3194,-4.32,-4.3206,0,0,0,0,0,0,0,0,0,0,0,0,0,-4.3116,-4.3055,-4.3239,-4.3183,-4.3178,-4.3283,-4.3283,-4.3284,-4.316,-4.3154,-4.3148,-4.3142,-4.3192,-4.3199,-4.3207,-4.3369,0,0,-4.3229,-4.3232,0,0,0,0,0,0,0,0,-4.3113,-4.3123,-4.319,-4.3187,-4.3182,-4.3209,-4.3234,-4.3313,-4.3161,-4.3167,-4.3146,-4.3139,-4.3205,-4.3211,-4.3232,-4.3372,-4.3374,-4.323,-4.3234,-4.3238,-4.324,0,0,0,0,0,0,0,-4.3108,-4.3121,-4.3257,-4.3192,-4.3186,-4.3156,-4.3159,-4.3249,-4.3218,-4.3166,-4.3157,-4.3163,-4.3202,-4.3225,-4.3232,-4.3374,-4.323,-4.3236,-4.3241,-4.3244,-4.3646,-4.3652,0,0,0,0,0,0,-4.311,-4.3118,-4.3255,-4.3258,-4.3132,-4.3164,-4.3167,-4.3206,-4.3217,-4.3213,-4.3168,-4.3157,-4.3216,-4.3224,-4.3234,-4.3423,-4.3237,-4.3244,-4.3249,-4.364,-4.3648,-4.3655,0,0,0,0,0,0,-4.3107,-4.3124,-4.3253,-4.3185,-4.3199,-4.3173,-4.3218,-4.321,-4.3234,-4.3219,-4.3213,-4.3198,-4.3211,-4.3223,-4.3335,-4.3423,-4.3248,-4.3255,-4.3633,-4.3643,-4.3651,-4.3805,0,0,0,0,0,0,-4.3102,-4.3123,-4.3185,-4.3188,-4.3204,-4.3355,-4.3223,-4.3215,-4.3246,-4.3232,-4.3245,-4.3242,-4.3208,-4.3325,-4.3343,-4.343,-4.326,-4.3625,-4.3637,-4.3648,-4.3793,-4.3819,-4.3842,0,0,0,0,0,-4.3095,-4.3228,-4.3189,-4.3206,-4.328,-4.336,-4.3369,-4.3326,-4.3254,-4.3315,-4.3305,-4.3241,-4.341,-4.3338,-4.3357,-4.3448,-4.3619,-4.3634,-4.3647,-4.3781,-4.3814,-4.3841,0,0,0,0,0,0,-4.3239,-4.3228,-4.3184,-4.3321,-4.3342,-4.3339,-4.3415,-4.3362,-4.3406,-4.3391,-4.3336,-4.334,-4.3463,-4.3466,-4.3385,-4.3604,-4.3502,-4.3521,-4.3598,-4.3629,-4.3653,-4.365,-4.3266,0,0,0,0,0,-4.3286,-4.3351,-4.3338,-4.346,-4.3473,-4.3443,-4.3476,-4.344,-4.3461,-4.347,-4.3468,-4.3491,-4.3549,-4.3589,-4.3641,-4.3791,-4.3792,-4.3863,-4.3888,-4.3908,-4.3925,-4.4003,-4.4034,-4.3701,-4.3701,-4.37,0,0,-4.3385,-4.3387,-4.3432,-4.3489,-4.3501,-4.357,-4.3451,-4.353,-4.3581,-4.3482,-4.3587,-4.3587,-4.3609,-4.374,-4.3798,-4.3747,-4.4017,-4.3926,-4.3942,-4.3948,-4.4021,-4.4052,-4.408,-4.371,-4.3709,-4.3707,0,0,-4.3601,-4.3609,-4.3711,-4.3724,-4.3743,-4.3721,-4.3746,-4.375,-4.3745,-4.3849,-4.3775,-4.3835,-4.3937,-4.3955,-4.3978,-4.4196,-4.4138,-4.4215,-4.4344,-4.442,-4.4447,-4.447,-4.4547,-4.4576,-4.4231,-4.4232,-4.4232,0,-4.3722,-4.3823,-4.377,-4.3853,-4.388,-4.3791,-4.3893,-4.391,-4.3946,-4.3967,-4.3908,-4.4031,-4.404,-4.4174,-4.4227,-4.4248,-4.4274,-4.4214,-4.4447,-4.4469,-4.449,-4.4563,-4.4593,-4.4241,-4.424,-4.4239,-4.4238,0,-4.397,-4.4041,-4.4121,-4.4155,-4.4191,-4.4284,-4.4246,-4.4288,-4.4248,-4.4233,-4.4339,-4.4345,-4.4397,-4.4425,-4.4389,-4.4554,-4.4521,-4.4456,-4.4353,-4.4532,-4.46,-4.4628,-4.4254,-4.4251,-4.4248,-4.4246,0,0,-4.4281,-4.4282,-4.4313,-4.4326,-4.4339,-4.4392,-4.448,-4.4528,-4.4565,-4.4592,-4.4665,-4.4751,-4.4689,-4.4715,-4.4679,-4.4746,-4.4917,-4.4671,-4.4671,-4.4717,-4.5098,-4.5147,-4.5181,-4.4878,-4.4883,-4.4887,-4.5096,0,-4.4494,-4.4642,-4.4596,-4.4747,-4.4811,-4.4725,-4.4801,-4.4817,-4.4804,-4.4856,-4.4842,-4.4903,-4.4818,-4.4832,-4.4895,-4.4883,-4.4993,-4.4867,-4.4945,-4.4949,-4.4943,-4.5216,-4.527,-4.5467,-4.5122,-4.5126,-4.513,0,-4.4762,-4.4797,-4.4953,-4.4952,-4.4977,-4.5046,-4.5085,-4.5136,-4.5152,-4.5137,-4.5164,-4.5113,-4.5199,-4.5094,-4.5211,-4.5127,-4.5155,-4.5154,-4.516,-4.5167,-4.5051,-4.5231,-4.5528,-4.5558,-4.5171,-4.5168,-4.5165,0,-4.4973,-4.5059,-4.5162,-4.5177,-4.5178,-4.5229,-4.5232,-4.5241,-4.5272,-4.5306,-4.5326,-4.537,-4.5395,-4.5431,-4.5393,-4.532,-4.5516,-4.5408,-4.5506,-4.5507,-4.5553,-4.5551,-4.586,-4.5571,-4.557,-4.557,-4.5569,0,-4.5215,-4.5315,-4.5257,-4.5321,-4.5429,-4.5374,-4.5483,-4.5476,-4.5485,-4.5546,-4.5475,-4.5534,-4.548,-4.5534,-4.5505,-4.5606,-4.5618,-4.5609,-4.56,-4.5616,-4.5617,-4.5635,-4.562,-4.5577,-4.5576,-4.5574,-4.5573,0,-4.547,-4.5436,-4.5543,-4.5534,-4.5534,-4.5614,-4.5606,-4.5665,-4.5645,-4.5724,-4.5739,-4.5709,-4.5768,-4.5733,-4.5796,-4.5775,-4.5906,-4.5879,-4.5901,-4.5894,-4.5994,-4.5985,-4.6326,-4.6368,-4.6052,-4.6055,-4.6057,0,-4.5628,-4.5702,-4.5699,-4.5734,-4.5741,-4.5799,-4.5829,-4.5777,-4.5812,-4.5833,-4.589,-4.5943,-4.5982,-4.6082,-4.6066,-4.6112,-4.6085,-4.6201,-4.6092,-4.6105,-4.6087,-4.6083,-4.609,-4.6224,-4.6228,-4.6231,-4.6233,0,-4.5911,-4.5889,-4.5935,-4.5974,-4.6011,-4.604,-4.6063,-4.6096,-4.6043,-4.6086,-4.6145,-4.6176,-4.6237,-4.629,-4.6329,-4.6332,-4.6275,-4.6267,-4.6293,-4.631,-4.632,-4.6315,-4.5962,-4.6261,-4.6258,-4.6256,-4.6254,-4.6253,-4.6122,-4.6183,-4.619,-4.6242,-4.6253,-4.6275,-4.6329,-4.6314,-4.6362,-4.6407,-4.6373,-4.6443,-4.6454,-4.65,-4.651,-4.6564,-4.6517,-4.6554,-4.6563,-4.6573,-4.6587,-4.631,-4.6571,-4.657,-4.6569,-4.6569,-4.6568,0,-4.6401,-4.64,-4.6449,-4.6482,-4.6523,-4.6462,-4.6483,-4.6522,-4.6583,-4.6598,-4.6637,-4.6704,-4.6755,-4.6741,-4.6786,-4.6832,-4.6807,-4.6846,-4.6842,-4.6844,-4.6627,-4.66,-4.6865,-4.6865,-4.6865,-4.6865,-4.6865,-4.6865,-4.6552,-4.665,-4.6629,-4.6731,-4.673,-4.6796,-4.6813,-4.6833,-4.6844,-4.6921,-4.6962,-4.6952,-4.6955,-4.6999,-4.7042,-4.7037,-4.7057,-4.7106,-4.7091,-4.6889,-4.6859,-4.6832,-4.6806,-4.7111,-4.7111,-4.7304,-4.7305,-4.7307]},{"header":{"parameterUnit":"m.s-1","parameterCategory":1,"la1":30.2991,"la2":30.254,"lo1":-89.0895,"lo2":-89.0444,"dy":0.0017,"dx":0.0017,"nx":28,"ny":28,"refTime":"2025-01-01T09:00:00:Z","depth":0,"parameterNumber":3,"parameterNumberName":"V-component_of_WINDS"},"data":[0,0,0,0,0,0,0,0,0,0,0,0,0,0,0,0,0,0,0,0,0,0,0,0,0,0,0,0,0,0,0,0,0,0,0,0,0,0,0,0,0,0,0,0,0,0,0,0,0,0,0,0,0,0,0,0,0,0,-1.3924,-1.3924,0,-1.3938,-1.3939,-1.3939,-1.3937,-1.3936,-1.3936,-1.3936,-1.3949,-1.395,-1.3951,0,0,0,0,0,0,0,0,0,0,0,0,0,-1.3892,-1.3893,-1.3924,-1.3924,-1.3924,-1.3938,-1.3939,-1.3939,-1.3937,-1.3936,-1.3936,-1.3936,-1.3949,-1.395,-1.3951,0,0,0,0,0,0,0,0,0,0,0,0,0,-1.3906,-1.3893,-1.3924,-1.3925,-1.3925,-1.3938,-1.3939,-1.3939,-1.3937,-1.3936,-1.3936,-1.3936,-1.3949,-1.395,-1.3951,-1.3963,0,0,-1.3953,-1.3954,0,0,0,0,0,0,0,0,-1.3906,-1.3908,-1.3925,-1.3925,-1.3925,-1.3935,-1.3932,-1.3947,-1.3937,-1.3932,-1.3936,-1.3935,-1.3945,-1.3946,-1.395,-1.3964,-1.3964,-1.3953,-1.3954,-1.3954,-1.3955,0,0,0,0,0,0,0,-1.3905,-1.3907,-1.393,-1.3925,-1.3925,-1.3924,-1.3926,-1.3935,-1.394,-1.3933,-1.3933,-1.3934,-1.3945,-1.3949,-1.395,-1.3965,-1.3953,-1.3954,-1.3955,-1.3955,-1.3988,-1.3988,0,0,0,0,0,0,-1.3904,-1.3906,-1.3929,-1.393,-1.3914,-1.3925,-1.3927,-1.3932,-1.394,-1.3941,-1.3935,-1.3934,-1.3947,-1.3949,-1.395,-1.3964,-1.3954,-1.3955,-1.3956,-1.3987,-1.3988,-1.3988,0,0,0,0,0,0,-1.3903,-1.3906,-1.3929,-1.3918,-1.3921,-1.3926,-1.3932,-1.3933,-1.3937,-1.3942,-1.3943,-1.3938,-1.3947,-1.3949,-1.396,-1.3965,-1.3956,-1.3956,-1.3987,-1.3988,-1.3988,-1.3993,0,0,0,0,0,0,-1.3902,-1.3906,-1.3911,-1.3918,-1.3921,-1.3939,-1.3933,-1.3933,-1.3938,-1.3938,-1.3945,-1.3946,-1.3947,-1.3958,-1.3961,-1.3966,-1.3957,-1.3987,-1.3987,-1.3988,-1.3992,-1.3994,-1.3995,0,0,0,0,0,-1.3901,-1.3912,-1.3911,-1.3914,-1.3929,-1.3939,-1.3941,-1.3942,-1.3939,-1.3944,-1.3947,-1.3945,-1.3964,-1.3959,-1.3962,-1.3968,-1.3986,-1.3987,-1.3988,-1.3992,-1.3993,-1.3995,0,0,0,0,0,0,-1.3906,-1.3913,-1.3912,-1.3926,-1.3932,-1.3939,-1.3945,-1.3944,-1.3951,-1.395,-1.3952,-1.3953,-1.3963,-1.3967,-1.3962,-1.3979,-1.3974,-1.3976,-1.3977,-1.3978,-1.3979,-1.3978,-1.3958,0,0,0,0,0,-1.3908,-1.3917,-1.3922,-1.3934,-1.3937,-1.394,-1.3945,-1.3946,-1.3951,-1.3954,-1.3958,-1.3963,-1.3969,-1.3974,-1.3981,-1.3993,-1.3993,-1.3998,-1.3999,-1.4,-1.4001,-1.4006,-1.4007,-1.3991,-1.3991,-1.3991,0,0,-1.3914,-1.3919,-1.3924,-1.3935,-1.394,-1.3947,-1.3943,-1.3951,-1.3957,-1.3955,-1.3965,-1.3968,-1.3973,-1.3984,-1.3989,-1.3987,-1.4005,-1.4001,-1.4001,-1.4002,-1.4007,-1.4008,-1.4009,-1.3991,-1.3991,-1.3991,0,0,-1.3928,-1.3933,-1.3943,-1.3947,-1.3953,-1.3955,-1.3957,-1.3964,-1.3965,-1.3976,-1.3974,-1.398,-1.3992,-1.3996,-1.3999,-1.4012,-1.4011,-1.4014,-1.402,-1.4025,-1.4026,-1.4027,-1.4031,-1.4032,-1.4015,-1.4015,-1.4015,0,-1.3934,-1.3946,-1.3948,-1.3956,-1.396,-1.3959,-1.3967,-1.3971,-1.398,-1.3982,-1.398,-1.3993,-1.3997,-1.4008,-1.4011,-1.4014,-1.4016,-1.4013,-1.4026,-1.4027,-1.4028,-1.4032,-1.4033,-1.4015,-1.4015,-1.4015,-1.4015,0,-1.3952,-1.396,-1.3967,-1.3975,-1.398,-1.3988,-1.399,-1.3995,-1.3994,-1.3996,-1.4005,-1.401,-1.4017,-1.4019,-1.4019,-1.403,-1.4028,-1.4026,-1.4021,-1.403,-1.4033,-1.4035,-1.4016,-1.4016,-1.4016,-1.4016,0,0,-1.3971,-1.3978,-1.398,-1.3983,-1.3989,-1.3995,-1.4003,-1.4009,-1.4013,-1.4018,-1.4024,-1.4033,-1.403,-1.4034,-1.4034,-1.4039,-1.4047,-1.4036,-1.4036,-1.4037,-1.4057,-1.4059,-1.406,-1.4046,-1.4046,-1.4047,-1.4056,0,-1.3985,-1.3999,-1.3999,-1.4012,-1.4018,-1.4016,-1.4023,-1.4026,-1.4028,-1.4033,-1.4035,-1.4041,-1.4037,-1.4039,-1.4044,-1.4045,-1.4051,-1.4045,-1.4051,-1.4051,-1.4049,-1.4062,-1.4064,-1.4073,-1.4058,-1.4058,-1.4058,0,-1.4003,-1.4008,-1.4021,-1.4025,-1.4028,-1.4034,-1.4038,-1.4044,-1.4048,-1.4048,-1.4052,-1.4051,-1.4057,-1.4052,-1.4061,-1.4056,-1.4059,-1.406,-1.406,-1.406,-1.4055,-1.4062,-1.4076,-1.4077,-1.406,-1.406,-1.406,0,-1.4014,-1.4024,-1.4033,-1.4035,-1.404,-1.4044,-1.4046,-1.4049,-1.4053,-1.4057,-1.4059,-1.4064,-1.4066,-1.4069,-1.4069,-1.4066,-1.4078,-1.4073,-1.4077,-1.4077,-1.408,-1.408,-1.4094,-1.4082,-1.4082,-1.4082,-1.4082,0,-1.4029,-1.4037,-1.4037,-1.4043,-1.4051,-1.4051,-1.4059,-1.406,-1.4063,-1.4068,-1.4066,-1.407,-1.407,-1.4075,-1.4075,-1.4081,-1.4082,-1.4082,-1.4082,-1.4082,-1.4082,-1.4084,-1.4083,-1.4083,-1.4083,-1.4082,-1.4082,0,-1.4043,-1.4044,-1.4053,-1.4056,-1.4057,-1.4062,-1.4065,-1.4069,-1.407,-1.4076,-1.4077,-1.4078,-1.4083,-1.4083,-1.4089,-1.4089,-1.4096,-1.4095,-1.4095,-1.4094,-1.4099,-1.4098,-1.4114,-1.4116,-1.4103,-1.4103,-1.4103,0,-1.4052,-1.4058,-1.4061,-1.4064,-1.4066,-1.4071,-1.4074,-1.4074,-1.4077,-1.4081,-1.4084,-1.4089,-1.4092,-1.41,-1.4101,-1.4104,-1.4103,-1.4109,-1.4104,-1.4103,-1.4103,-1.4102,-1.4102,-1.411,-1.411,-1.411,-1.411,0,-1.4068,-1.4068,-1.4073,-1.4077,-1.408,-1.4084,-1.4087,-1.4089,-1.4089,-1.4092,-1.4097,-1.41,-1.4105,-1.4109,-1.4112,-1.4113,-1.4111,-1.4111,-1.4113,-1.4113,-1.4112,-1.4111,-1.4097,-1.4111,-1.4111,-1.4111,-1.4111,-1.4111,-1.4079,-1.4084,-1.4086,-1.4091,-1.4093,-1.4096,-1.4099,-1.41,-1.4104,-1.4108,-1.4108,-1.4112,-1.4114,-1.4118,-1.412,-1.4123,-1.4121,-1.4123,-1.4123,-1.4124,-1.4124,-1.4111,-1.4124,-1.4124,-1.4124,-1.4124,-1.4124,0,-1.4095,-1.4096,-1.41,-1.4104,-1.4107,-1.4105,-1.4108,-1.411,-1.4115,-1.4117,-1.412,-1.4124,-1.4128,-1.4129,-1.4132,-1.4134,-1.4133,-1.4135,-1.4134,-1.4134,-1.4126,-1.4124,-1.4135,-1.4135,-1.4135,-1.4135,-1.4135,-1.4135,-1.4103,-1.411,-1.4109,-1.4117,-1.4118,-1.4122,-1.4124,-1.4126,-1.4127,-1.4132,-1.4135,-1.4135,-1.4136,-1.4139,-1.4142,-1.4142,-1.4143,-1.4145,-1.4144,-1.4136,-1.4135,-1.4134,-1.4133,-1.4145,-1.4145,-1.4153,-1.4153,-1.4153]}]]